Wind_Speed
29 29 39 40 37 36 37 37 39 38 29 39 34 28 28 26 22 22 21 21 22 21 22 23 23 23 22 22 22 23 23 19 16 13 11 12 15 19 23 26 30 29 29 28
28 32 30 30 31 31 34 35 29 33 19 34 34 31 21 33 26 20 21 21 21 19 21 19 18 18 19 21 20 20 19 17 15 14 14 15 19 20 24 26 29 30 30 33
30 27 26 30 29 25 26 33 27 31 28 27 32 29 29 24 32 35 28 20 17 19 18 21 20 20 19 20 20 20 18 15 16 17 20 22 23 25 27 27 29 30 29 27
22 22 24 26 29 24 23 28 27 25 30 28 32 25 34 29 30 31 32 30 29 27 28 24 22 21 21 21 20 19 18 19 20 22 23 26 28 26 26 28 29 29 32 34
17 19 29 26 28 23 17 24 30 22 26 24 27 25 38 33 32 30 32 31 27 23 19 21 23 29 27 26 25 27 28 27 25 26 28 29 26 23 25 25 26 29 31 34
11 21 24 26 24 16 14 23 25 27 19 17 20 28 25 38 39 35 31 28 24 25 23 19 23 30 32 29 28 27 28 29 29 30 29 27 24 22 23 22 23 27 31 34
13 22 18 26 27 19 18 28 17 18 18 12 27 20 20 29 25 36 33 28 26 24 24 24 24 25 25 24 24 23 26 28 27 25 23 21 21 21 19 23 28 31 33 36
23 21 19 30 36 35 30 31 25 19 15 13 19 16 17 17 17 24 29 29 29 26 24 24 25 29 30 28 23 24 29 28 27 25 22 20 20 20 22 25 27 28 30 31
13 13 15 26 30 27 31 26 6 5 25 19 16 10 11 17 20 16 20 25 28 27 28 27 28 32 31 26 23 26 30 29 27 25 21 20 21 19 20 22 24 25 27 30
6 24 15 25 26 24 31 27 13 9 10 10 16 19 10 18 17 18 21 21 22 25 26 27 25 30 26 27 25 27 28 28 26 23 21 22 20 17 18 21 23 24 26 28
11 20 18 27 23 31 29 29 21 10 7 7 7 13 14 14 14 19 17 18 21 27 26 28 29 29 28 27 28 29 29 28 25 23 24 20 16 15 18 23 25 27 29 31
5 17 24 25 17 21 21 26 20 13 10 3 2 11 11 11 12 12 14 16 19 22 23 26 34 31 31 31 32 32 29 28 25 23 21 17 16 19 22 25 28 30 33 37
11 21 26 21 15 18 22 23 22 15 8 11 6 11 11 9 7 11 13 12 13 15 20 23 29 33 35 34 33 31 30 27 24 23 17 16 19 23 26 29 32 36 39 42
7 18 17 14 21 23 22 21 20 17 14 14 12 11 7 6 7 9 10 12 13 12 15 22 26 34 35 32 31 30 29 27 24 18 17 19 21 26 30 33 37 41 44 48
6 13 12 12 17 21 21 21 21 20 15 11 8 7 3 9 10 9 9 11 12 15 17 26 35 35 37 34 34 32 28 22 17 17 19 22 26 30 34 38 43 46 50 52
8 10 13 13 15 16 16 20 21 20 17 14 8 6 5 13 12 10 9 11 16 18 26 34 37 38 35 34 31 24 19 16 17 19 22 26 30 35 39 44 48 51 52 48
9 7 10 11 13 15 14 14 18 20 18 14 13 9 14 12 13 12 10 10 11 24 37 41 39 34 32 28 23 18 15 16 20 22 26 30 35 40 44 50 53 52 46 44
14 10 8 12 11 13 6 12 12 13 13 14 9 9 14 14 12 9 4 3 7 23 27 29 28 25 25 22 18 17 18 22 25 27 32 36 40 45 50 53 49 45 43 44
16 15 8 9 14 2 8 12 11 12 10 14 13 17 15 12 9 6 7 8 5 17 20 24 23 19 14 17 18 21 23 26 29 32 36 41 46 50 49 46 42 42 43 45
23 16 15 12 12 7 8 11 11 12 13 15 17 14 10 7 8 8 12 11 13 15 21 19 15 6 14 14 17 21 23 27 31 37 42 46 46 44 42 42 42 42 43 40
17 18 19 16 14 11 11 12 10 10 4 5 17 12 11 13 12 8 14 12 14 14 15 17 13 15 11 13 17 22 28 33 38 42 42 41 40 39 39 41 41 39 34 33
22 16 17 20 17 11 15 15 13 12 8 7 12 13 14 9 10 10 12 11 10 9 8 8 9 12 16 20 25 30 35 36 36 36 36 36 37 37 38 37 33 30 30 27
17 19 20 17 19 14 17 19 22 18 13 5 7 12 14 12 9 11 12 9 8 7 8 12 16 20 24 28 28 30 30 30 30 32 34 36 36 34 32 28 27 24 21 22
24 24 18 21 23 20 14 20 20 18 11 11 10 12 16 12 11 11 9 9 10 12 15 18 22 24 24 25 26 25 25 26 29 32 34 34 31 28 24 21 19 22 18 20
17 25 26 28 20 22 20 22 17 19 14 14 14 15 16 14 12 11 11 13 15 17 19 19 19 21 21 21 21 21 23 27 30 31 31 27 22 18 15 19 16 20 22 23
22 19 24 19 25 25 25 21 17 15 15 18 17 18 16 13 12 12 14 16 18 16 15 16 17 17 18 18 18 19 22 26 28 26 23 16 13 13 18 17 20 19 24 22
Wind_Direction
178 182 192 191 191 196 195 197 196 198 199 197 201 197 201 196 183 184 186 184 185 183 186 187 194 199 203 207 211 218 217 217 220 230 235 255 259 266 268 270 278 275 262 263
176 194 191 190 194 198 203 202 201 192 189 193 198 201 197 200 194 186 183 183 186 191 192 190 183 189 196 204 213 213 217 221 237 247 258 267 265 274 268 271 280 281 271 274
183 187 186 189 187 196 200 194 184 189 194 191 194 202 197 198 202 208 208 202 202 203 200 207 206 202 195 199 206 213 221 251 264 265 268 264 275 267 271 275 279 282 281 282
180 184 179 180 188 185 186 192 189 181 181 183 192 199 202 197 196 199 202 204 206 216 210 213 217 223 227 230 233 246 259 264 268 273 270 261 263 269 276 279 284 289 286 290
181 180 189 185 183 183 194 188 191 178 191 186 193 229 199 202 201 204 206 209 215 217 219 226 230 234 237 243 251 258 262 265 265 258 256 259 267 277 278 283 288 292 292 292
184 188 184 187 175 166 158 172 182 195 196 215 189 208 209 201 210 208 209 211 216 218 219 218 228 239 243 248 251 253 253 251 245 248 256 259 265 273 282 291 300 304 299 295
149 167 177 180 174 171 159 156 163 181 197 215 206 200 214 213 215 215 218 220 221 221 223 222 225 230 232 237 240 241 241 240 242 248 251 254 269 277 286 298 303 302 298 294
142 171 169 179 183 178 179 178 166 178 185 160 175 218 215 210 202 210 212 220 223 220 223 226 236 244 247 245 234 233 231 234 239 240 253 262 269 277 287 294 300 301 299 299
163 151 168 179 177 184 184 201 180 196 193 179 180 205 195 192 204 189 203 215 224 228 232 230 232 244 243 230 224 226 229 231 236 245 246 257 260 275 286 299 304 306 306 307
160 143 165 165 172 176 191 184 164 197 174 181 183 198 211 189 200 210 214 216 218 219 221 226 212 219 217 215 218 217 220 226 234 233 245 251 267 283 303 312 309 305 306 306
159 163 164 168 183 180 179 187 197 198 203 189 156 214 210 209 203 208 206 213 220 225 224 221 206 211 208 210 210 214 221 227 226 236 245 256 269 299 318 320 314 313 314 317
164 167 155 172 175 184 186 191 190 182 176 105 199 111 177 174 183 189 200 216 215 214 220 211 211 203 204 202 206 213 221 219 228 237 247 266 286 305 316 318 317 318 320 321
140 156 155 157 172 182 185 188 196 199 219 197 159 136 181 177 189 195 194 206 212 215 221 210 199 201 195 200 206 216 221 223 229 241 261 281 295 306 312 316 318 320 321 322
116 162 169 176 174 174 179 185 190 191 190 189 203 135 193 194 197 204 220 229 232 221 224 189 192 193 195 202 208 207 212 221 232 252 272 287 299 308 312 316 317 317 319 318
151 165 185 169 162 176 182 190 195 200 198 222 180 203 207 195 225 218 224 228 252 263 226 186 190 187 197 203 201 206 215 227 246 267 284 293 303 308 311 314 314 315 315 316
169 142 144 145 172 184 195 203 201 206 208 223 232 233 192 237 235 225 228 255 291 239 194 185 195 194 201 196 201 210 225 243 265 279 288 296 301 306 311 311 311 311 313 312
176 156 167 138 164 175 185 193 198 210 215 216 225 222 241 230 227 221 238 331 263 205 191 195 196 192 190 199 207 223 237 260 278 283 286 292 300 305 308 308 308 309 311 310
185 174 168 152 164 202 137 175 179 193 205 210 214 205 231 245 238 219 243 342 227 188 180 179 180 191 205 211 216 231 253 271 278 285 290 296 302 304 304 305 306 307 309 307
188 189 167 167 192 109 172 188 182 179 213 211 178 213 241 237 232 215 207 175 128 158 177 181 195 212 223 225 237 254 262 276 281 289 293 297 299 301 302 303 305 306 306 308
193 190 200 193 190 204 181 198 206 206 230 228 229 237 245 204 181 220 202 178 167 183 193 192 204 165 254 241 247 263 275 281 287 289 292 295 298 301 302 304 304 305 307 307
184 195 202 205 209 217 201 210 212 209 213 245 225 223 195 171 204 227 210 204 195 194 213 240 257 250 264 275 276 279 284 287 288 291 296 299 300 301 302 301 303 304 304 304
195 192 201 214 211 224 215 205 193 224 246 243 202 198 203 196 186 180 199 201 197 205 218 240 262 276 282 286 287 286 287 292 297 298 298 299 301 300 300 300 301 303 302 302
201 208 200 204 210 214 203 202 212 217 213 196 203 199 200 190 183 167 173 189 201 229 260 273 279 283 284 287 291 295 298 299 300 302 303 302 301 300 299 301 304 308 309 306
213 215 209 207 211 212 210 208 212 211 205 205 205 203 199 191 187 187 202 231 243 256 268 277 283 288 293 296 298 299 302 306 309 308 305 304 301 298 299 305 308 309 312 312
217 218 215 216 215 207 204 201 200 209 211 201 199 190 190 184 193 202 221 241 258 271 278 281 287 291 294 298 303 307 313 315 314 311 309 305 298 296 298 310 318 313 314 321
225 214 207 218 216 198 192 188 187 192 203 193 196 190 188 196 211 230 246 259 265 268 276 282 286 291 295 298 302 307 314 320 321 317 316 311 297 307 302 300 322 318 319 321
Height
3042 3050 3049 3055 3064 3071 3077 3084 3086 3094 3100 3107 3112 3118 3122 3127 3131 3134 3138 3142 3146 3151 3153 3156 3159 3162 3165 3167 3170 3173 3176 3179 3181 3183 3184 3185 3186 3185 3185 3185 3185 3182 3182 3182
3044 3046 3054 3062 3067 3072 3075 3079 3083 3093 3097 3103 3109 3115 3119 3123 3125 3130 3137 3141 3145 3148 3151 3154 3156 3159 3161 3165 3168 3171 3174 3177 3178 3180 3181 3182 3182 3182 3181 3181 3179 3178 3177 3177
3040 3048 3054 3059 3065 3069 3072 3076 3082 3088 3095 3102 3107 3113 3116 3120 3126 3131 3135 3137 3141 3147 3149 3151 3154 3157 3159 3162 3165 3168 3171 3173 3175 3177 3178 3177 3177 3176 3175 3175 3174 3173 3171 3171
3043 3047 3052 3057 3064 3069 3072 3077 3083 3087 3093 3094 3100 3103 3111 3117 3120 3126 3131 3135 3141 3142 3144 3147 3151 3154 3157 3159 3162 3165 3167 3169 3171 3172 3173 3173 3172 3171 3171 3170 3169 3168 3167 3165
3042 3046 3051 3056 3062 3068 3071 3076 3081 3086 3090 3093 3100 3100 3101 3112 3116 3120 3126 3132 3135 3138 3142 3145 3148 3149 3154 3156 3159 3162 3163 3165 3166 3167 3168 3168 3168 3167 3166 3166 3165 3163 3161 3159
3040 3047 3051 3058 3064 3067 3070 3075 3082 3088 3090 3090 3091 3098 3093 3101 3108 3117 3122 3126 3130 3134 3139 3142 3142 3147 3150 3152 3154 3157 3159 3160 3160 3162 3163 3164 3164 3163 3162 3161 3159 3157 3155 3153
3038 3044 3051 3057 3063 3068 3071 3071 3076 3083 3084 3083 3090 3096 3093 3098 3104 3111 3117 3122 3126 3130 3134 3138 3140 3142 3145 3148 3150 3152 3153 3154 3156 3157 3157 3158 3158 3158 3156 3155 3154 3152 3149 3146
3037 3046 3046 3050 3055 3057 3065 3066 3066 3068 3071 3076 3086 3088 3092 3096 3099 3105 3112 3117 3121 3123 3128 3132 3136 3138 3140 3142 3145 3147 3148 3149 3151 3152 3152 3153 3153 3153 3152 3151 3149 3147 3143 3140
3035 3038 3045 3049 3056 3062 3064 3067 3068 3066 3070 3072 3083 3087 3090 3093 3097 3101 3105 3110 3113 3117 3121 3126 3130 3131 3133 3136 3139 3140 3142 3144 3146 3147 3148 3149 3150 3151 3149 3146 3144 3141 3137 3133
3037 3040 3046 3050 3058 3063 3064 3069 3074 3070 3070 3071 3075 3081 3084 3089 3094 3098 3102 3106 3109 3111 3115 3118 3123 3124 3127 3130 3132 3135 3137 3139 3141 3143 3144 3146 3147 3144 3142 3140 3138 3134 3131 3128
3038 3040 3047 3051 3053 3056 3062 3066 3070 3069 3070 3068 3070 3079 3082 3086 3090 3093 3098 3101 3102 3104 3108 3112 3115 3117 3121 3125 3128 3130 3132 3135 3137 3139 3141 3141 3140 3138 3136 3134 3131 3127 3124 3120
3037 3040 3046 3050 3054 3058 3061 3065 3069 3070 3073 3069 3070 3075 3080 3084 3086 3088 3093 3094 3096 3099 3102 3105 3108 3111 3115 3119 3123 3125 3128 3132 3134 3135 3136 3135 3134 3132 3130 3128 3125 3122 3117 3113
3040 3042 3044 3050 3055 3057 3059 3063 3068 3071 3071 3072 3073 3075 3080 3082 3084 3087 3089 3091 3093 3095 3097 3099 3102 3105 3111 3115 3119 3123 3126 3128 3130 3131 3131 3131 3129 3127 3125 3121 3118 3114 3109 3105
3039 3042 3043 3044 3047 3053 3057 3060 3065 3069 3072 3071 3072 3074 3079 3081 3083 3084 3086 3088 3089 3091 3092 3095 3097 3101 3108 3112 3115 3119 3120 3123 3125 3126 3125 3125 3123 3121 3118 3114 3110 3106 3102 3097
3040 3043 3043 3044 3048 3053 3056 3059 3063 3066 3068 3068 3070 3073 3076 3079 3080 3081 3082 3083 3085 3086 3088 3090 3094 3099 3103 3106 3110 3113 3116 3120 3121 3121 3120 3119 3116 3113 3110 3106 3102 3097 3092 3087
3041 3044 3045 3048 3051 3052 3054 3057 3060 3063 3065 3068 3070 3072 3074 3074 3076 3076 3078 3079 3080 3080 3083 3087 3090 3093 3098 3103 3107 3111 3114 3116 3116 3115 3113 3112 3110 3106 3102 3098 3094 3088 3082 3077
3042 3044 3045 3047 3050 3051 3054 3055 3057 3061 3064 3067 3068 3069 3069 3071 3072 3073 3074 3074 3073 3074 3076 3080 3087 3092 3097 3101 3106 3109 3110 3111 3110 3108 3107 3105 3102 3098 3093 3089 3083 3077 3072 3067
3043 3045 3046 3047 3051 3048 3050 3053 3058 3060 3063 3064 3066 3066 3067 3068 3069 3072 3071 3071 3073 3073 3077 3083 3089 3095 3098 3101 3103 3104 3105 3105 3103 3101 3099 3096 3093 3089 3084 3080 3074 3069 3064 3059
3041 3045 3047 3049 3051 3052 3052 3054 3056 3059 3062 3062 3065 3064 3065 3067 3069 3070 3071 3073 3074 3075 3081 3085 3089 3092 3096 3098 3099 3100 3100 3098 3097 3095 3092 3088 3084 3080 3075 3070 3065 3060 3056 3049
3039 3043 3047 3048 3050 3049 3050 3053 3055 3057 3059 3060 3061 3062 3064 3066 3069 3069 3071 3073 3077 3080 3082 3085 3087 3089 3093 3094 3095 3094 3093 3092 3090 3087 3083 3079 3074 3069 3065 3060 3056 3051 3045 3040
3037 3040 3042 3045 3047 3047 3048 3051 3054 3058 3061 3057 3058 3061 3063 3067 3069 3069 3071 3074 3077 3081 3084 3085 3086 3089 3089 3089 3089 3088 3087 3085 3082 3078 3073 3068 3064 3060 3056 3052 3047 3042 3037 3033
3035 3038 3039 3042 3044 3046 3046 3049 3054 3054 3053 3055 3056 3058 3061 3064 3067 3068 3071 3074 3077 3079 3081 3083 3083 3084 3084 3084 3083 3082 3080 3076 3072 3068 3064 3060 3056 3052 3048 3043 3038 3034 3030 3026
3033 3034 3036 3040 3040 3039 3041 3044 3047 3050 3053 3054 3055 3058 3061 3064 3066 3069 3072 3074 3076 3078 3079 3080 3080 3080 3080 3079 3076 3074 3071 3068 3065 3061 3056 3052 3047 3043 3038 3035 3031 3028 3025 3022
3024 3026 3030 3034 3034 3036 3039 3041 3045 3048 3051 3053 3054 3057 3059 3062 3065 3068 3070 3072 3074 3075 3076 3076 3076 3074 3073 3072 3070 3068 3065 3062 3058 3053 3047 3043 3039 3035 3031 3028 3026 3024 3021 3017
3020 3021 3023 3026 3029 3033 3036 3039 3042 3046 3048 3051 3053 3055 3058 3061 3064 3066 3068 3070 3072 3072 3072 3072 3071 3070 3068 3066 3064 3062 3059 3056 3051 3045 3039 3035 3031 3029 3027 3025 3022 3020 3016 3012
3013 3017 3020 3023 3026 3029 3033 3037 3040 3043 3046 3049 3052 3054 3057 3060 3062 3064 3066 3068 3069 3069 3068 3067 3066 3065 3064 3063 3060 3059 3056 3051 3045 3038 3033 3029 3027 3025 3024 3021 3018 3015 3012 3007